| time (UTC) | temp C | wind direction | speed KPH | gust KPH | rain 1hr cm | rain 24hr cm | rain mn cm | humidity % | barometer mb |
| 20260904161548 | 27 | 360 | 0.0 | 3.2 | 0.00 | 0.00 | 0.00 | 31 | 1003.4 |
| 20260904160044 | 27 | 360 | 1.6 | 9.7 | 0.00 | 0.00 | 0.00 | 28 | 1003.4 |
| 20260904154540 | 27 | 62 | 0.0 | 0.0 | 0.00 | 0.00 | 0.00 | 29 | 1003.5 |
| 20260904153046 | 25 | 58 | 0.0 | 0.0 | 0.00 | 0.00 | 0.00 | 33 | 1003.5 |
| 20260904151530 | 25 | 89 | 0.0 | 0.0 | 0.00 | 0.00 | 0.00 | 34 | 1003.4 |
| 20260904150026 | 24 | 360 | 0.0 | 0.0 | 0.00 | 0.00 | 0.00 | 36 | 1003.4 |
| 20260904144522 | 23 | 360 | 0.0 | 0.0 | 0.00 | 0.00 | 0.00 | 34 | 1003.3 |
| 20260904143018 | 23 | 107 | 0.0 | 0.0 | 0.00 | 0.00 | 0.00 | 39 | 1003.3 |
| 20260904141515 | 22 | 107 | 0.0 | 0.0 | 0.00 | 0.00 | 0.00 | 41 | 1003.4 |
| 20260904140008 | 22 | 191 | 0.0 | 0.0 | 0.00 | 0.00 | 0.00 | 47 | 1003.4 |
| 20260904134504 | 18 | 191 | 0.0 | 0.0 | 0.00 | 0.00 | 0.00 | 49 | 1003.3 |
| 20260904133101 | 17 | 168 | 0.0 | 0.0 | 0.00 | 0.00 | 0.00 | 48 | 1003.1 |
| 20260904131631 | 16 | 167 | 0.0 | 0.0 | 0.00 | 0.00 | 0.00 | 52 | 1002.9 |
| 20260904130051 | 16 | 167 | 0.0 | 0.0 | 0.00 | 0.00 | 0.00 | 47 | 1002.9 |
| 20260904124551 | 16 | 167 | 0.0 | 0.0 | 0.00 | 0.00 | 0.00 | 49 | 1002.8 |
| 20260904123103 | 15 | 155 | 0.0 | 3.2 | 0.00 | 0.00 | 0.00 | 51 | 1002.7 |
| 20260904121545 | 15 | 182 | 0.0 | 0.0 | 0.00 | 0.00 | 0.00 | 51 | 1002.6 |
| 20260904120043 | 14 | 259 | 0.0 | 0.0 | 0.00 | 0.00 | 0.00 | 52 | 1002.5 |
| 20260904114545 | 14 | 258 | 0.0 | 0.0 | 0.00 | 0.00 | 0.00 | 54 | 1002.4 |
| 20260904113040 | 15 | 258 | 0.0 | 0.0 | 0.00 | 0.00 | 0.00 | 52 | 1002.2 |
| 20260904111545 | 15 | 258 | 0.0 | 0.0 | 0.00 | 0.00 | 0.00 | 50 | 1002.3 |
| 20260904110037 | 15 | 258 | 0.0 | 0.0 | 0.00 | 0.00 | 0.00 | 51 | 1001.9 |
| 20260904104532 | 15 | 258 | 0.0 | 0.0 | 0.00 | 0.00 | 0.00 | 51 | 1001.8 |
| 20260904103036 | 16 | 259 | 0.0 | 0.0 | 0.00 | 0.00 | 0.00 | 51 | 1001.7 |
| 20260904101527 | 16 | 259 | 0.0 | 0.0 | 0.00 | 0.00 | 0.00 | 50 | 1001.5 |
| 20260904100027 | 16 | 258 | 0.0 | 0.0 | 0.00 | 0.00 | 0.00 | 49 | 1001.4 |
| 20260904094524 | 16 | 259 | 0.0 | 0.0 | 0.00 | 0.00 | 0.00 | 51 | 1001.2 |
| 20260904093021 | 17 | 259 | 0.0 | 0.0 | 0.00 | 0.00 | 0.00 | 46 | 1001.2 |
| 20260904091518 | 18 | 259 | 0.0 | 0.0 | 0.00 | 0.00 | 0.00 | 45 | 1001.1 |
| 20260904090119 | 18 | 258 | 0.0 | 0.0 | 0.00 | 0.00 | 0.00 | 45 | 1001.1 |
| 20260904084516 | 18 | 258 | 0.0 | 0.0 | 0.00 | 0.00 | 0.00 | 43 | 1001.0 |
| 20260904083017 | 19 | 258 | 0.0 | 6.4 | 0.00 | 0.00 | 0.00 | 41 | 1000.9 |
| 20260904081515 | 18 | 258 | 0.0 | 0.0 | 0.00 | 0.00 | 0.00 | 43 | 1000.8 |
| 20260904080114 | 18 | 261 | 0.0 | 0.0 | 0.00 | 0.00 | 0.00 | 44 | 1000.8 |
| 20260904074512 | 18 | 261 | 0.0 | 0.0 | 0.00 | 0.00 | 0.00 | 44 | 1000.9 |
| 20260904073016 | 18 | 261 | 0.0 | 3.2 | 0.00 | 0.00 | 0.00 | 44 | 1000.7 |
| 20260904071527 | 18 | 231 | 0.0 | 0.0 | 0.00 | 0.00 | 0.00 | 44 | 1000.8 |
| 20260904070009 | 18 | 182 | 0.0 | 0.0 | 0.00 | 0.00 | 0.00 | 45 | 1000.9 |
| 20260904064504 | 19 | 159 | 0.0 | 0.0 | 0.00 | 0.00 | 0.00 | 45 | 1001.3 |
| 20260904063002 | 20 | 159 | 0.0 | 0.0 | 0.00 | 0.00 | 0.00 | 41 | 1001.2 |
| 20260904061603 | 21 | 159 | 0.0 | 0.0 | 0.00 | 0.00 | 0.00 | 39 | 1001.3 |
| 20260904060111 | 20 | 157 | 0.0 | 6.4 | 0.00 | 0.00 | 0.00 | 39 | 1001.4 |
| 20260904054558 | 20 | 261 | 0.0 | 0.0 | 0.00 | 0.00 | 0.00 | 45 | 1001.1 |
| 20260904053054 | 21 | 261 | 0.0 | 0.0 | 0.00 | 0.00 | 0.00 | 39 | 1000.7 |
| 20260904051553 | 21 | 261 | 0.0 | 0.0 | 0.00 | 0.00 | 0.00 | 37 | 1000.6 |
| 20260904050052 | 22 | 261 | 0.0 | 1.6 | 0.00 | 0.00 | 0.00 | 39 | 1000.6 |
| 20260904044557 | 23 | 284 | 0.0 | 1.6 | 0.00 | 0.00 | 0.00 | 34 | 1000.5 |
| 20260904043052 | 23 | 360 | 0.0 | 1.6 | 0.00 | 0.00 | 0.00 | 33 | 1000.6 |
| 20260904041551 | 23 | 360 | 0.0 | 1.6 | 0.00 | 0.00 | 0.00 | 33 | 1000.6 |
| 20260904040050 | 24 | 297 | 0.0 | 3.2 | 0.00 | 0.00 | 0.00 | 33 | 1000.7 |
| 20260904034600 | 24 | 360 | 0.0 | 6.4 | 0.00 | 0.03 | 0.00 | 34 | 1000.8 |
| 20260904033049 | 24 | 279 | 1.6 | 9.7 | 0.00 | 0.03 | 0.00 | 34 | 1000.7 |
| 20260904031548 | 24 | 293 | 0.0 | 14.5 | 0.00 | 0.03 | 0.00 | 34 | 1000.7 |
| 20260904030046 | 25 | 289 | 0.0 | 8.0 | 0.00 | 0.03 | 0.00 | 34 | 1000.6 |
| 20260904024546 | 24 | 286 | 0.0 | 3.2 | 0.00 | 0.08 | 0.00 | 34 | 1000.6 |
| 20260904023045 | 25 | 319 | 0.0 | 0.0 | 0.00 | 0.08 | 0.00 | 34 | 1000.6 |
| 20260904021548 | 25 | 302 | 0.0 | 3.2 | 0.00 | 0.08 | 0.00 | 34 | 1000.3 |
| 20260904020043 | 25 | 346 | 0.0 | 0.0 | 0.00 | 0.08 | 0.00 | 33 | 1000.2 |
| 20260904014546 | 26 | 355 | 0.0 | 0.0 | 0.00 | 0.08 | 0.00 | 31 | 1000.1 |
| 20260904013043 | 27 | 340 | 0.0 | 0.0 | 0.00 | 0.08 | 0.00 | 28 | 1000.1 |
| 20260904011543 | 27 | 69 | 0.0 | 0.0 | 0.00 | 0.08 | 0.00 | 26 | 1000.0 |
| 20260904010050 | 28 | 360 | 0.0 | 0.0 | 0.00 | 0.08 | 0.00 | 26 | 1000.1 |
| 20260904004556 | 28 | 360 | 0.0 | 0.0 | 0.00 | 0.08 | 0.00 | 25 | 1000.1 |
| 20260904003039 | 29 | 23 | 0.0 | 1.6 | 0.00 | 0.08 | 0.00 | 23 | 1000.0 |
| 20260904001538 | 28 | 9 | 0.0 | 0.0 | 0.00 | 0.08 | 0.00 | 23 | 1000.1 |
| 20260904000048 | 29 | 13 | 0.0 | 0.0 | 0.00 | 0.08 | 0.00 | 23 | 1000.0 |
| 20260903234543 | 29 | 41 | 0.0 | 6.4 | 0.00 | 0.08 | 0.00 | 22 | 1000.0 |
| 20260903233037 | 30 | 360 | 0.0 | 1.6 | 0.00 | 0.08 | 0.00 | 22 | 1000.1 |
| 20260903231536 | 30 | 355 | 0.0 | 0.0 | 0.00 | 0.08 | 0.00 | 21 | 1000.0 |
| 20260903230035 | 30 | 336 | 0.0 | 1.6 | 0.00 | 0.08 | 0.00 | 21 | 1000.1 |
| 20260903224538 | 31 | 5 | 0.0 | 4.8 | 0.00 | 0.08 | 0.00 | 20 | 1000.1 |
| 20260903223037 | 30 | 360 | 0.0 | 6.4 | 0.00 | 0.08 | 0.00 | 23 | 1000.3 |
| 20260903221529 | 30 | 360 | 0.0 | 12.9 | 0.00 | 0.08 | 0.00 | 23 | 1000.6 |
| 20260903220037 | 30 | 360 | 1.6 | 9.7 | 0.00 | 0.08 | 0.00 | 22 | 1000.8 |
| 20260903214526 | 30 | 23 | 1.6 | 14.5 | 0.00 | 0.08 | 0.00 | 25 | 1000.9 |
| 20260903213035 | 30 | 360 | 1.6 | 9.7 | 0.00 | 0.08 | 0.00 | 23 | 1000.8 |
| 20260903211553 | 30 | 9 | 0.0 | 8.0 | 0.00 | 0.08 | 0.00 | 25 | 1001.1 |
| 20260903210021 | 29 | 360 | 3.2 | 9.7 | 0.00 | 0.08 | 0.00 | 24 | 1001.3 |
| 20260903204519 | 29 | 107 | 0.0 | 17.7 | 0.00 | 0.08 | 0.00 | 23 | 1001.5 |
| 20260903203017 | 29 | 360 | 0.0 | 8.0 | 0.00 | 0.08 | 0.00 | 22 | 1001.6 |
| 20260903201517 | 29 | 360 | 0.0 | 6.4 | 0.00 | 0.08 | 0.00 | 26 | 1001.6 |
| 20260903200013 | 29 | 360 | 0.0 | 16.1 | 0.00 | 0.08 | 0.00 | 23 | 1001.9 |
| 20260903194511 | 28 | 360 | 3.2 | 16.1 | 0.00 | 0.08 | 0.00 | 26 | 1002.0 |
| 20260903193008 | 28 | 360 | 0.0 | 12.9 | 0.00 | 0.08 | 0.00 | 26 | 1002.1 |
| 20260903191513 | 27 | 121 | 3.2 | 16.1 | 0.00 | 0.08 | 0.00 | 26 | 1002.4 |
| 20260903190005 | 28 | 360 | 1.6 | 8.0 | 0.00 | 0.08 | 0.00 | 30 | 1002.6 |
| 20260903184503 | 28 | 360 | 1.6 | 8.0 | 0.00 | 0.08 | 0.00 | 27 | 1002.7 |
| 20260903183004 | 27 | 360 | 1.6 | 12.9 | 0.00 | 0.08 | 0.00 | 29 | 1003.0 |
| 20260903181558 | 28 | 360 | 0.0 | 6.4 | 0.00 | 0.08 | 0.00 | 26 | 1003.1 |
| 20260903180106 | 27 | 22 | 1.6 | 12.9 | 0.00 | 0.08 | 0.00 | 27 | 1003.3 |
| 20260903174609 | 27 | 360 | 1.6 | 14.5 | 0.00 | 0.08 | 0.00 | 27 | 1003.4 |
| 20260903173055 | 27 | 360 | 0.0 | 12.9 | 0.00 | 0.08 | 0.00 | 30 | 1003.5 |
| 20260903171546 | 26 | 63 | 0.0 | 9.7 | 0.00 | 0.08 | 0.00 | 29 | 1003.6 |
| 20260903170105 | 26 | 360 | 0.0 | 9.7 | 0.00 | 0.08 | 0.00 | 32 | 1003.6 |
| 20260903164549 | 26 | 360 | 3.2 | 9.7 | 0.00 | 0.08 | 0.00 | 33 | 1003.6 |
| 20260903163036 | 27 | 61 | 0.0 | 3.2 | 0.00 | 0.08 | 0.00 | 29 | 1003.7 |